Regional Weather Roundup
Issued by NWS Columbia, SC

Home | Current Version | Previous Version | Text Only | Print | Product List | Glossary On
Versions: 1 2 3 4 5 6 7 8 9 10 11 12 13 14 15 16 17 18 19 20 21 22 23 24 25 26 27 28 29 30 31 32 33 34 35 36 37 38 39 40 41 42 43 44 45 46 47 48 49 50
000
ASUS42 KCAE 011910
RWRCAE
REGIONAL WEATHER ROUNDUP
NATIONAL WEATHER SERVICE COLUMBIA SC
300 PM EDT TUE SEP 01 2015

NOTE: "FAIR" INDICATES FEW OR NO CLOUDS BELOW 12,000 FEET WITH NO
SIGNIFICANT WEATHER AND/OR OBSTRUCTIONS TO VISIBILITY.

NOT ALL STATIONS ARE QUALITY CONTROLLED BY THE NATIONAL
WEATHER SERVICE. USE DATA WITH CAUTION...ESPECIALLY
DEWPOINT OBSERVATIONS.

SCZ001>056-GAZ040-063>065-077-012000-
...UPSTATE SOUTH CAROLINA...

CITY           SKY/WX    TMP DP  RH WIND       PRES   REMARKS
ANDERSON       PTSUNNY   86  67  52 SW8       30.11F
LIBERTY        MOCLDY    86  67  53 SW3       30.11S
SPARTANBURG    MOSUNNY   91  63  38 CALM      30.09F
CLEMSON        SUNNY     90  65  43 CALM      30.13F
GREENVILLE     PTSUNNY   88  63  43 VRB7      30.12F
GREENWOOD      MOSUNNY   88  66  48 VRB3      30.12F
GREER          CLOUDY    87  63  44 S6        30.10F
ROCK HILL      MOSUNNY   90  65  43 S6        30.09F
LAURENS        CLEAR     88  73  62 W6        30.10S HX  96


...CENTRAL SOUTH CAROLINA...

CITY           SKY/WX    TMP DP  RH WIND       PRES   REMARKS
COLUMBIA APT   PTSUNNY   92  63  38 VRB5      30.07F
COLUMBIA OWENS SUNNY     90  65  43 CALM      30.08F
DARLINGTON     PTSUNNY   90  70  51 SE3       30.08S HX  95
FLORENCE       SUNNY     90  68  48 SW5       30.07F
MCENTIRE ANGB  PTSUNNY   87  69  56 E3        30.08F
ORANGEBURG     MOSUNNY   89  67  47 S3        30.08F
SUMTER SHAW    PTSUNNY   91  66  43 S7        30.05F
NEWBERRY       CLEAR     88  63  42 CALM      30.12F
AIKEN          MOCLDY    86  63  45 CALM      30.12F
BARNWELL       FAIR      88  70  55 CALM      30.09F
MANNING        FAIR      86  63  45 CALM      30.07F
CAMDEN         MOCLDY    90  66  45 CALM      30.08F
LANCASTER      CLEAR     90  63  40 S3        30.09F
WINNSBORO      CLEAR     90  64  43 SW3       30.09F


...EASTERN AND COASTAL SOUTH CAROLINA...

CITY           SKY/WX    TMP DP  RH WIND       PRES   REMARKS
MYRTLE BEACH   MOSUNNY   86  73  66 S12       30.09F
N MYRTLE BCH   PTSUNNY   85  75  72 S10       30.07F
CONWAY         FAIR      88  70  55 CALM      30.07F
MARION         MOCLDY    88  68  51 CALM      30.07S
HARTSVILLE     FAIR      90  64  43 S3        30.07F
FLORENCE       SUNNY     90  68  48 SW5       30.07F
DARLINGTON     PTSUNNY   90  70  51 SE3       30.08S HX  95
CHARLESTON APT PTSUNNY   89  67  47 SW8       30.08F
MOUNT PLEASANT LGT RAIN  86  75  70 SE6       30.09S HX  95
WALTERBORO     MOCLDY    88  68  51 CALM      30.09F
BEAUFORT       PTSUNNY   86  71  60 E3        30.08F


...EASTERN GEORGIA...

CITY           SKY/WX    TMP DP  RH WIND       PRES   REMARKS
AUGUSTA BUSH F MOSUNNY   89  68  49 VRB5      30.08F
AUGUSTA DANIEL PTSUNNY   89  66  46 CALM      30.10F
THOMSON        MOSUNNY   90  71  54 CALM      30.14F HX  96
WASHINGTON     FAIR      90  72  55 NE3       30.11F HX  96
SYLVANIA       PTCLDY    91  73  56 CALM      30.09F HX  99
STATESBORO     MOSUNNY   88  75  63 SE6       30.09S HX  98
SAVANNAH       CLOUDY    86  71  60 SE10      30.08F


...SOUTHERN NORTH CAROLINA...

CITY           SKY/WX    TMP DP  RH WIND       PRES   REMARKS
CHARLOTTE      MOSUNNY   91  61  36 CALM      30.09F
MONROE         PTSUNNY   90  65  43 CALM      30.08F
WADESBORO      PTCLDY    90  62  39 CALM      30.07F
ROCKINGHAM     MOCLDY    87  68  52 W6        30.07F
RUTHERFORDTON  SUNNY     91  63  38 S7        30.11F
ASHEVILLE      CLOUDY    83  61  47 E5        30.17F

$$


USA.gov is the U.S. government's official web portal to all federal, state and local government web resources and services.